Location: Maiden
(35.5760°N, 81.2120°W)
Time: 10:47:58
(UTC-04:00)

Vanguard 1 Rocket - All Passes

Search period start: 04 August 2020 00:00
Search period end: 14 August 2020 00:00
Orbit: 654 x 4222 km, 34.3° (Epoch: 03 August)

Date Brightness Start Highest point End Pass type
(mag) Time Alt. Az. Time Alt. Az. Time Alt. Az.
04 Aug - 06:29:52 10° S 06:32:47 12° SSE 06:35:16 10° SE daylight
04 Aug - 08:52:45 10° SW 08:58:12 38° SSE 09:02:21 10° E daylight
04 Aug - 11:18:18 10° W 11:22:45 78° S 11:27:43 10° E daylight
04 Aug - 13:42:51 10° W 13:47:30 50° SSW 13:54:48 10° ESE daylight
04 Aug - 16:08:14 10° WSW 16:13:22 21° SSW 16:20:56 10° SSE daylight
05 Aug - 07:41:20 10° SW 07:47:20 27° SSE 07:51:32 10° E daylight
05 Aug - 10:07:08 10° WSW 10:12:06 68° S 10:16:30 10° E daylight
05 Aug - 12:32:19 10° W 12:36:42 64° S 12:42:36 10° ESE daylight
05 Aug - 14:57:01 10° W 15:01:51 28° SSW 15:09:16 10° SSE daylight
06 Aug - 06:30:06 10° SSW 06:36:05 19° SSE 06:40:21 10° ESE daylight
06 Aug - 08:55:30 10° WSW 09:01:25 51° SSE 09:05:45 10° E daylight
06 Aug - 11:21:32 10° W 11:26:01 76° S 11:30:54 10° E daylight
06 Aug - 13:46:17 10° W 13:50:44 38° SSW 13:57:21 10° SE daylight
06 Aug - 16:13:16 10° SW 16:16:42 13° SSW 16:21:00 10° S daylight
07 Aug - 05:19:46 10° S 05:24:24 14° SSE 05:28:04 10° SE visible
07 Aug - 07:43:31 10° SW 07:50:34 37° SSE 07:55:09 10° E daylight
07 Aug - 10:10:16 10° W 10:15:21 76° S 10:19:45 10° E daylight
07 Aug - 12:35:38 10° W 12:39:55 52° SSW 12:45:32 10° ESE daylight
07 Aug - 15:01:03 10° WSW 15:05:07 19° SSW 15:10:45 10° SSE daylight
08 Aug - 06:31:28 10° SSW 06:39:22 28° SSE 06:44:24 10° E daylight
08 Aug - 08:58:23 10° WSW 09:04:39 63° S 09:09:04 10° E daylight
08 Aug - 11:24:47 10° W 11:29:16 69° S 11:34:03 10° ESE daylight
08 Aug - 13:49:53 10° W 13:53:58 27° SSW 13:59:37 10° SE daylight
09 Aug - 05:19:43 10° SSW 05:27:44 21° SSE 05:33:08 10° ESE visible
09 Aug - 07:46:00 10° WSW 07:53:47 49° SSE 07:58:36 10° E daylight
09 Aug - 10:13:25 10° W 10:18:37 78° S 10:23:01 10° E daylight
09 Aug - 12:39:00 10° W 12:43:08 39° SSW 12:48:19 10° SE daylight
09 Aug - 15:06:06 10° SW 15:08:24 12° SSW 15:11:06 10° S daylight
10 Aug - 04:09:02 10° S 04:15:37 15° SSE 04:20:37 10° ESE visible
10 Aug - 06:33:20 10° SW 06:42:37 38° SSE 06:48:05 10° E daylight
10 Aug - 09:01:23 10° WSW 09:07:53 73° S 09:12:22 10° E daylight
10 Aug - 11:28:01 10° W 11:32:30 58° SSW 11:37:09 10° ESE daylight
10 Aug - 13:53:48 10° WSW 13:57:11 18° SSW 14:01:28 10° SSE daylight
11 Aug - 05:20:42 10° SSW 05:31:02 29° SSE 05:37:15 10° E visible
11 Aug - 07:48:41 10° WSW 07:57:00 61° SSE 08:01:58 10° E daylight
11 Aug - 10:16:35 10° W 10:21:53 75° S 10:26:15 10° E daylight
11 Aug - 12:42:30 10° W 12:46:19 28° SSW 12:50:53 10° SE daylight
12 Aug - 04:08:34 10° SSW 04:18:56 22° SSE 04:25:44 10° ESE visible
12 Aug - 06:35:31 10° SW 06:45:50 49° SSE 06:51:35 10° E daylight
12 Aug - 09:04:26 10° W 09:11:08 79° S 09:15:40 10° E daylight
12 Aug - 11:31:18 10° W 11:35:42 45° SSW 11:40:08 10° SE daylight
12 Aug - 13:58:46 10° SW 14:00:24 11° SSW 14:02:11 10° S daylight
13 Aug - 02:57:54 10° S 03:06:19 15° SSE 03:12:39 10° ESE visible
13 Aug - 05:22:11 10° SW 05:34:15 38° SSE 05:41:00 10° E visible
13 Aug - 07:51:31 10° WSW 08:00:13 72° S 08:05:17 10° E daylight
13 Aug - 10:19:46 10° W 10:25:06 66° SSW 10:29:28 10° ESE daylight
13 Aug - 12:46:15 10° WSW 12:49:28 19° SSW 12:53:06 10° SSE daylight
